GAOFEN 9 DEB, 44600

Orbit data source: Space-Track

GAOFEN 9 DEB, 44600 is space debris in SSO originally from a launch on Mon, 14 Sep 2015 UTC launched from the Jiuquan Satellite Launch Center, China (JSC). Debris objects in space refer to the collection of defunct objects orbiting the Earth. Examples of debris include non-operational satellites, rocket bodies, and fragments generated from explosions, collisions, or faulty payload assembly.

Loading next visibility...
Identifier
44600, 2015-047B
Orbit
SSO
Country
Flag of CNCN / PRC
Related business
Manufacturer
Unknown
Mission
Spacecraft
Bus & Motor
Unknown
Mass
Unknown
Launch date (UTC)
2015-09-14 (10 years ago)
Launch vehicle
Unknown
Launch site
Jiuquan Satellite Launch Center, China (JSC)
Object type
Payload
Rocket body
Debris
Shape & HBR
Unknown shape, 0.1 m
Radar Cross Section
Small (<0.1 m²)

Expand to show TLE details & history
Last TLE update: 18 hours ago

TLE from 18 hours ago
0 GAOFEN 9 DEB
1 44600U 15047B   25352.52787417  .00003817  00000-0  70031-3 0  9992
2 44600  98.1347 278.6944 0154211 274.6136  83.7465 14.58909466539485
Epoch: 2025-12-18T12:40Z
TLE epoch observation values (Epoch: 2025-12-18T12:40:08.328Z)
Latitude
0.00001°
Longitude
1.27761°
Altitude
689.464 km
Speed
7.517 km/s
True Right ascension
18h 34m 46s
True Declination
0° 00' 00"
Sunlit
Object was in daylight at epoch
Visualization orbit readout
Latitude
Unknown
Longitude
Unknown
Altitude
Unknown
Speed
Unknown
Apparent Right ascension
Unknown
Apparent Declination
Unknown
Sunlit
N/A
Visualization observer readout
Local Sidereal Time
05:42:59
Azimuth
Unknown
Elevation
Unknown
Doppler factor
Unknown
Orbital elements
Apogee altitude
802.833 km
Perigee altitude
584.719 km
Semi-major axis
7,071.913 km
Eccentricity
0.01542
Inclination
98.1347°
RAAN
278.6944°
Arg. of periapsis
274.6136°
True anomaly
85.50653°
Mean anomaly
83.7465°
Eccentric anomaly
84.62618°
Mean motion
3.64954 °/min
Orbital period
98.64 mins
BSTAR
0.00070031
Loading maneuver chart data...
Computing Atmospheric mass density...
Loading historical data...
Loading historical data...
Loading historical data...
Loading historical data...
Loading historical data...
Loading historical data...
Loading historical data...
Other satellites on launch #47 in the year 2015 (2015-09-14 UTC)

Documentation

Showing up to 5 results
|